Regional Weather Roundup
Issued by NWS

Home | Current Version | Previous Version | Text Only | Print | Product List | Glossary Off
Versions: 1 2 3 4 5 6 7 8 9 10 11 12 13 14 15 16 17 18 19 20 21 22 23 24 25 26 27 28 29 30 31 32 33 34 35 36 37 38 39 40 41 42 43 44 45 46 47 48 49 50

000
ASUS43 KTOP 051508
RWRKS

WEATHER ROUNDUP FOR KANSAS
NATIONAL WEATHER SERVICE GOODLAND KS
1000 AM CDT SUN JUL 05 2015

NOTE:  "FAIR" INDICATES FEW OR NO CLOUDS BELOW 12,000 FEET WITH NO
SIGNIFICANT WEATHER AND/OR OBSTRUCTIONS TO VISIBILITY.

KSZ001>006-013>018-027>032-041>047-051600-
NORTHWEST KANSAS

CITY           SKY/WX    TMP DP  RH WIND       PRES   REMARKS
GOODLAND       SUNNY     80  60  50 S10       29.88F
HAYS           MOSUNNY   84  64  51 S18G24    29.87S
HILL CITY      SUNNY     87  64  46 S15G21    29.85R
RUSSELL        PTSUNNY   83  68  60 S17G25    29.87R
$$

KSZ061>065-074>080-084>089-051600-
SOUTHWEST KANSAS

CITY           SKY/WX    TMP DP  RH WIND       PRES   REMARKS
DODGE CITY     SUNNY     83  63  50 S18G25    29.93R
ELKHART          N/A     83  58  42 SW14        N/A
GARDEN CITY    SUNNY     83  64  52 S16       29.91R
GREAT BEND     MOSUNNY   82  66  57 S17G25    29.90F
LIBERAL        SUNNY     84  66  54 S17G24    29.96S
PRATT          MOSUNNY   86  63  45 SW17      29.94S
$$

KSZ066>073-081>083-090>101-051600-
SOUTHEAST KANSAS

CITY           SKY/WX    TMP DP  RH WIND       PRES   REMARKS
CHANUTE        MOSUNNY   81  71  71 S16       30.00S
COFFEYVILLE    MOSUNNY   78  71  79 S13       30.00S
HUTCHINSON     SUNNY     84  69  60 S14       29.93S
MEDICINE LODGE   N/A     84  68  58 S12       29.93R
NEWTON         MOSUNNY   82  66  57 S16       29.98S
PARSONS        MOSUNNY   81  73  76 S10       30.01F
WICHITA INTL   MOSUNNY   83  70  64 S17G23    29.95R
WICHITA JABRA  MOSUNNY   82  70  66 S14       29.96R
WICHITA MCCONL MOSUNNY   82  70  66 S14       29.96R
WINFIELD       PTSUNNY   82  71  69 S17G23    29.99R
$$

KSZ007>012-019>026-033>040-048>060-102>105-051600-
NORTHEAST KANSAS

CITY           SKY/WX    TMP DP  RH WIND       PRES   REMARKS
CONCORDIA      MOSUNNY   82  71  69 S16       29.89F
EMPORIA        MOSUNNY   81  70  69 S22G28    29.96F
LAWRENCE       MOSUNNY   79  70  74 SE8       29.98F
MANHATTAN      PTSUNNY   81  71  71 S12G22    29.93R
MARYSVILLE     CLOUDY    77  72  83 S10       29.92F
OLATHE IND     MOSUNNY   80  71  74 S10       30.00F
OLATHE EXE     MOSUNNY   80  71  74 S10       30.00F
SALINA         SUNNY     86  69  56 S17G26    29.90S
TOPEKA BILLARD PTSUNNY   80  71  74 SE8       29.97S
TOPEKA FORBES  PTSUNNY   81  71  71 S13       29.97S
$$



USA.gov is the U.S. government's official web portal to all federal, state and local government web resources and services.